COSMOS 2251 DEB, 40223

Orbit data source: Space-Track

COSMOS 2251 DEB, 40223 is space debris in LEO originally from a launch on Wed, 16 Jun 1993 UTC launched from the Plesetsk Missile And Space Complex (PKMTR). The debris from Iridium 33, an American commercial communications satellite, has been tracked extensively since its accidental collision with the defunct Russian satellite Cosmos 2251 in 2009. This event, occurring at high speed in low Earth orbit (LEO), generated thousands of pieces of space debris, significantly increasing the risk of further collisions. The Iridium 33 debris cloud has impacted space traffic management and orbital debris mitigation strategies, making it a subject of ongoing study in space situational awareness.

Loading next visibility...
Identifier
40223, 1993-036BVC
Orbit
LEO
Country
Flag of CISCIS
Related business
Manufacturer
Unknown
Mission
Spacecraft
Bus & Motor
Unknown
Mass
Unknown
Launch date (UTC)
1993-06-16 (33 years ago)
Launch vehicle
Unknown
Launch site
Plesetsk Missile And Space Complex (PKMTR)
Object type
Payload
Rocket body
Debris
Shape & HBR
Unknown shape, 0.1 m
Radar Cross Section
Small (<0.1 m²)

Expand to show TLE details & history
Last TLE update: 3 days ago

TLE from 3 days ago
0 COSMOS 2251 DEB
1 40223U 93036BVC 26034.83517278  .00064590  00000-0  38939-2 0  9996
2 40223  73.9357 338.9397 0011464 170.2991 221.4388 15.10380965601748
Epoch: 2026-02-03T20:02Z
TLE epoch observation values (Epoch: 2026-02-03T20:02:38.928Z)
Latitude
30.34343°
Longitude
-86.08231°
Altitude
544.538 km
Speed
7.59 km/s
True Right ascension
23h 14m 21s
True Declination
30° 11' 21"
Sunlit
Object was in daylight at epoch
Visualization orbit readout
Latitude
Unknown
Longitude
Unknown
Altitude
Unknown
Speed
Unknown
Apparent Right ascension
Unknown
Apparent Declination
Unknown
Sunlit
N/A
Visualization observer readout
Local Sidereal Time
01:04:01
Azimuth
Unknown
Elevation
Unknown
Doppler factor
Unknown
Orbital elements
Apogee altitude
540.511 km
Perigee altitude
524.666 km
Semi-major axis
6,910.726 km
Eccentricity
0.00115
Inclination
73.9357°
RAAN
338.9397°
Arg. of periapsis
170.2991°
True anomaly
221.35195°
Mean anomaly
221.4388°
Eccentric anomaly
221.39537°
Mean motion
3.77796 °/min
Orbital period
95.29 mins
BSTAR
0.0038939

Documentation

Showing up to 5 results
|